Mayfld Grav Cnty AP, Mayfield, KY

5:27 PM CST on November 21, 2019 (GMT -0600)
Mayfld Grav Cnty AP, Mayfield

Weather History for KM25 - May, 2019

Change the Weather History Date:

Saturday, May 4, 2019

  Actual Average (WUND) Record (WUND)
Temperature  
Mean Temperature 64 °F -  
Max Temperature 71 °F - - (-1)
Min Temperature 57 °F - - (-1)
Degree Days  
Heating Degree Days 1    
Growing Degree Days 14 (Base 50)    
Moisture  
Dew Point 61 °F    
Average Humidity 91    
Maximum Humidity 100    
Minimum Humidity 69    
Precipitation  
Precipitation 0.00 in - - ()
Sea Level Pressure  
Sea Level Pressure 29.88 in    
Wind  
Wind Speed 5 mph (North)    
Max Wind Speed 13 mph    
Max Gust Speed 16 mph    
Visibility 8 miles    
Events      
Averages and records for this station are not official NWS values.
T = Trace of Precipitation, MM = Missing Value Source: NWS Daily Summary

Daily Weather History Graph

Daily Weather History Graph

Search for Another Location

Airport or City:

Astronomy

May. 04, 2019 Rise Set
Actual Time 5:57 AM CDT 7:45 PM CDT
Civil Twilight 5:29 AM CDT 8:13 PM CDT
Nautical Twilight 4:55 AM CDT 8:47 PM CDT
Astronomical Twilight 4:19 AM CDT 9:23 PM CDT
Moon 6:05 AM CDT (5/4) 7:36 PM CDT (5/4)
Length of Visible Light 14h 44m
Length of Day
13h 48m
Waning Crescent, 0% of the Moon is Illuminated
May 4
Waning Crescent
May 4
New
May 11
First Quarter
May 18
Full
May 26
Last Quarter

Hourly Weather History & Observations

Time (CDT) Temp. Dew Point Humidity Pressure Visibility Wind Dir Wind Speed Gust Speed Precip Events Conditions
12:15 AM 62.6 °F 62.6 °F 100% 29.94 in 5.0 mi ENE 5.8 mph - N/A   Overcast
12:35 AM 62.6 °F 62.6 °F 100% 29.94 in 5.0 mi ENE 3.5 mph - N/A   Overcast
12:55 AM 62.6 °F 62.6 °F 100% 29.95 in 5.0 mi Calm Calm - N/A   Overcast
1:15 AM 62.6 °F 62.6 °F 100% 29.95 in 5.0 mi Calm Calm - N/A   Overcast
1:35 AM 62.6 °F 62.6 °F 100% 29.93 in 5.0 mi East 4.6 mph - N/A   Overcast
1:55 AM 62.6 °F 62.6 °F 100% 29.93 in 4.0 mi East 4.6 mph - N/A   Overcast
2:15 AM 62.6 °F 62.6 °F 100% 29.93 in 4.0 mi ESE 3.5 mph - N/A   Overcast
2:35 AM 62.6 °F 62.6 °F 100% 29.92 in 4.0 mi ESE 3.5 mph - N/A   Overcast
2:55 AM 62.6 °F 62.6 °F 100% 29.91 in 4.0 mi East 3.5 mph - N/A   Overcast
3:15 AM 62.6 °F 62.6 °F 100% 29.90 in 4.0 mi East 3.5 mph - N/A   Overcast
3:35 AM 62.6 °F 62.6 °F 100% 29.90 in 4.0 mi East 4.6 mph - N/A   Overcast
3:55 AM 62.6 °F 62.6 °F 100% 29.89 in 4.0 mi East 4.6 mph - N/A   Overcast
4:15 AM 62.6 °F 62.6 °F 100% 29.88 in 4.0 mi East 6.9 mph - N/A   Overcast
4:35 AM 62.6 °F 62.6 °F 100% 29.88 in 5.0 mi ESE 4.6 mph - N/A   Overcast
4:55 AM 62.6 °F 62.6 °F 100% 29.88 in 5.0 mi East 3.5 mph - N/A   Overcast
5:15 AM 62.6 °F 62.6 °F 100% 29.89 in 5.0 mi ESE 5.8 mph - N/A   Overcast
5:35 AM 62.6 °F 62.6 °F 100% 29.89 in 5.0 mi SE 3.5 mph - N/A   Mostly Cloudy
5:55 AM 62.6 °F 62.6 °F 100% 29.89 in 5.0 mi Calm Calm - N/A   Mostly Cloudy
6:15 AM 62.6 °F 62.6 °F 100% 29.89 in 5.0 mi Calm Calm - N/A   Overcast
6:35 AM 62.6 °F 62.6 °F 100% 29.89 in 5.0 mi Calm Calm - N/A   Overcast
6:55 AM 62.6 °F 62.6 °F 100% 29.89 in 7.0 mi SSE 3.5 mph - N/A   Overcast
7:15 AM 62.6 °F 62.6 °F 100% 29.89 in 7.0 mi Calm Calm - N/A   Overcast
7:35 AM 64.4 °F 62.6 °F 94% 29.89 in 10.0 mi Calm Calm - N/A   Overcast
7:55 AM 64.4 °F 62.6 °F 94% 29.88 in 10.0 mi South 3.5 mph - N/A   Mostly Cloudy
8:15 AM 64.4 °F 64.4 °F 100% 29.89 in 10.0 mi Calm Calm - N/A   Mostly Cloudy
8:35 AM 64.4 °F 64.4 °F 100% 29.89 in 10.0 mi SSW 4.6 mph - N/A   Overcast
8:55 AM 64.4 °F 64.4 °F 100% 29.89 in 10.0 mi Calm Calm - N/A   Overcast
9:15 AM 66.2 °F 64.4 °F 94% 29.89 in 10.0 mi WSW 4.6 mph - N/A   Overcast
9:35 AM 66.2 °F 64.4 °F 94% 29.89 in 7.0 mi SW 4.6 mph - N/A   Overcast
9:55 AM 68.0 °F 64.4 °F 88% 29.89 in 10.0 mi SSW 5.8 mph - N/A   Overcast
10:15 AM 68.0 °F 64.4 °F 88% 29.89 in 10.0 mi WSW 4.6 mph - N/A   Mostly Cloudy
10:35 AM 68.0 °F 62.6 °F 83% 29.89 in 10.0 mi SW 4.6 mph - N/A   Overcast
10:55 AM 69.8 °F 62.6 °F 78% 29.88 in 10.0 mi West 6.9 mph - N/A   Overcast
11:15 AM 69.8 °F 62.6 °F 78% 29.89 in 10.0 mi WSW 6.9 mph - N/A   Overcast
11:35 AM 69.8 °F 62.6 °F 78% 29.88 in 10.0 mi West 4.6 mph - N/A   Mostly Cloudy
11:55 AM 71.6 °F 62.6 °F 73% 29.87 in 10.0 mi SW 8.1 mph - N/A   Scattered Clouds
12:15 PM 71.6 °F 60.8 °F 69% 29.86 in 10.0 mi West 6.9 mph - N/A   Mostly Cloudy
12:35 PM 69.8 °F 60.8 °F 73% 29.86 in 10.0 mi WSW 8.1 mph - N/A   Scattered Clouds
12:55 PM 71.6 °F 60.8 °F 69% 29.86 in 10.0 mi WSW 8.1 mph - N/A   Scattered Clouds
1:15 PM 71.6 °F 60.8 °F 69% 29.86 in 10.0 mi WNW 4.6 mph - N/A   Scattered Clouds
1:35 PM 71.6 °F 60.8 °F 69% 29.86 in 10.0 mi WNW 4.6 mph - N/A   Scattered Clouds
1:55 PM 69.8 °F 60.8 °F 73% 29.86 in 10.0 mi WNW 6.9 mph - N/A   Scattered Clouds
2:15 PM 68.0 °F 62.6 °F 83% 29.86 in 10.0 mi NW 9.2 mph - N/A   Overcast
2:35 PM 68.0 °F 62.6 °F 83% 29.87 in 10.0 mi NW 10.4 mph - N/A   Overcast
2:55 PM 66.2 °F 62.6 °F 88% 29.86 in 10.0 mi NW 12.7 mph - N/A   Overcast
3:15 PM 64.4 °F 62.6 °F 94% 29.86 in 7.0 mi NNW 10.4 mph - N/A   Overcast
3:35 PM 64.4 °F 60.8 °F 88% 29.86 in 10.0 mi NNW 10.4 mph - N/A   Overcast
3:55 PM 62.6 °F 59.0 °F 88% 29.86 in 10.0 mi NNW 10.4 mph - N/A   Overcast
4:15 PM 62.6 °F 59.0 °F 88% 29.85 in 10.0 mi North 8.1 mph - N/A   Overcast
4:35 PM 62.6 °F 59.0 °F 88% 29.85 in 10.0 mi NNW 9.2 mph - N/A   Overcast
4:55 PM 62.6 °F 59.0 °F 88% 29.85 in 10.0 mi NNW 10.4 mph - N/A   Overcast
5:15 PM 60.8 °F 59.0 °F 94% 29.84 in 10.0 mi North 5.8 mph - N/A   Overcast
5:35 PM 60.8 °F 59.0 °F 94% 29.84 in 10.0 mi NNW 12.7 mph - N/A   Overcast
5:55 PM 59.0 °F 57.2 °F 94% 29.84 in 10.0 mi North 8.1 mph - N/A   Overcast
6:15 PM 59.0 °F 57.2 °F 94% 29.83 in 10.0 mi North 8.1 mph - N/A   Overcast
6:35 PM 59.0 °F 57.2 °F 94% 29.84 in 10.0 mi North 6.9 mph - N/A   Overcast
6:55 PM 59.0 °F 57.2 °F 94% 29.84 in 10.0 mi North 4.6 mph - N/A   Overcast
7:15 PM 59.0 °F 57.2 °F 94% 29.83 in 10.0 mi NNE 5.8 mph - N/A   Overcast
7:35 PM 59.0 °F 55.4 °F 88% 29.84 in 10.0 mi North 10.4 mph - N/A   Overcast
7:55 PM 59.0 °F 55.4 °F 88% 29.84 in 10.0 mi North 8.1 mph - N/A   Overcast
8:15 PM 59.0 °F 55.4 °F 88% 29.85 in 10.0 mi North 6.9 mph - N/A   Overcast
8:35 PM 59.0 °F 55.4 °F 88% 29.85 in 10.0 mi North 6.9 mph - N/A   Overcast
8:55 PM 59.0 °F 55.4 °F 88% 29.86 in 10.0 mi NNW 9.2 mph - N/A   Overcast
9:15 PM 57.2 °F 55.4 °F 94% 29.86 in 10.0 mi North 4.6 mph - N/A   Overcast
9:35 PM 57.2 °F 55.4 °F 94% 29.86 in 10.0 mi North 6.9 mph 16.1 mph N/A   Overcast
9:55 PM 57.2 °F 55.4 °F 94% 29.86 in 10.0 mi NNE 6.9 mph - N/A   Overcast
10:15 PM 59.0 °F 55.4 °F 88% 29.87 in 10.0 mi North 6.9 mph - N/A   Overcast
10:35 PM 59.0 °F 55.4 °F 88% 29.86 in 10.0 mi North 4.6 mph - N/A   Overcast
10:55 PM 59.0 °F 55.4 °F 88% 29.86 in 10.0 mi North 5.8 mph - N/A   Overcast
11:15 PM 59.0 °F 55.4 °F 88% 29.86 in 10.0 mi North 6.9 mph - N/A   Overcast
11:35 PM 59.0 °F 55.4 °F 88% 29.86 in 10.0 mi North 5.8 mph - N/A   Overcast
11:55 PM 59.0 °F 55.4 °F 88% 29.86 in 10.0 mi North 6.9 mph - N/A   Overcast